Change the Weather History Date:

Tuesday, March 4, 2014

  Actual Average (KLBX) Record (KLBX)
Temperature  
Mean Temperature 37 °F -  
Max Temperature 41 °F 66 °F 75 °F (2011)
Min Temperature 33 °F 49 °F 21 °F (2002)
Degree Days  
Heating Degree Days 28    
Growing Degree Days 0 (Base 50)    
Moisture  
Dew Point 35 °F    
Average Humidity 93    
Maximum Humidity 99    
Minimum Humidity 76    
Precipitation  
Precipitation 0.98 in - - ()
Sea Level Pressure  
Sea Level Pressure 30.15 in    
Wind  
Wind Speed 7 mph (NNE)    
Max Wind Speed 15 mph    
Max Gust Speed 18 mph    
Visibility 8 miles    
Events Rain , Snow    
Averages and records for this station are not official NWS values.
T = Trace of Precipitation, MM = Missing Value Source: NWS Daily Summary

Daily Weather History Graph

Daily Weather History Graph

Search for Another Location

Airport or City:

Trip Planner

Search our weather history database for the weather conditions in past years. The results will help you decide how hot, cold, wet, or windy it might be!

Date:

Astronomy

Mar. 04, 2014 Rise Set
Actual Time 6:45 AM CST 6:25 PM CST
Civil Twilight 6:21 AM CST 6:48 PM CST
Nautical Twilight 5:54 AM CST 7:16 PM CST
Astronomical Twilight 5:26 AM CST 7:43 PM CST
Moon 8:51 AM CST (3/4) 10:11 PM CST (3/4)
Length of Visible Light 12h 27m
Length of Day
11h 39m
Waxing Crescent, 15% of the Moon is Illuminated
Mar 4
Waxing Crescent
Mar 8
First Quarter
Mar 16
Full
Mar 23
Last Quarter
Mar 30
New

Hourly Weather History & Observations

Time (CST) Temp. Windchill Dew Point Humidity Pressure Visibility Wind Dir Wind Speed Gust Speed Precip Events Conditions
12:15 AM 36.7 °F 29.4 °F 29.7 °F 76% 30.24 in 10.0 mi North 10.4 mph - N/A   Overcast
12:35 AM 36.5 °F 29.2 °F 29.7 °F 76% 30.22 in 10.0 mi North 10.4 mph 16.1 mph N/A   Overcast
12:55 AM 36.5 °F 29.7 °F 29.5 °F 76% 30.21 in 10.0 mi North 9.2 mph - N/A   Overcast
1:15 AM 36.3 °F 27.1 °F 29.7 °F 77% 30.21 in 10.0 mi North 15.0 mph - N/A   Overcast
1:35 AM 35.8 °F 28.8 °F 29.8 °F 79% 30.19 in 10.0 mi NNE 9.2 mph 18.4 mph N/A   Overcast
1:55 AM 35.6 °F 29.2 °F 30.0 °F 80% 30.20 in 10.0 mi NNE 8.1 mph - N/A   Overcast
2:15 AM 35.6 °F 31.7 °F 30.4 °F 81% 30.21 in 10.0 mi NNE 4.6 mph - N/A   Overcast
2:35 AM 35.6 °F 30.7 °F 30.9 °F 83% 30.21 in 7.0 mi North 5.8 mph - N/A Rain Rain
2:55 AM 34.9 °F 28.3 °F 31.8 °F 89% 30.21 in 10.0 mi NNW 8.1 mph - 0.01 in Rain Light Rain
3:15 AM 34.5 °F 26.2 °F 32.0 °F 90% 30.24 in 7.0 mi NW 11.5 mph - N/A Rain Rain
3:35 AM 34.2 °F 26.2 °F 32.0 °F 92% 30.23 in 2.0 mi NW 10.4 mph - 0.11 in Snow Light Snow
3:55 AM 33.6 °F 28.4 °F 32.0 °F 94% 30.22 in 1.5 mi North 5.8 mph - 0.28 in Snow Light Snow
4:15 AM 33.3 °F 27.1 °F 32.2 °F 96% 30.18 in 2.5 mi NE 6.9 mph - 0.09 in Snow Light Snow
4:35 AM 33.1 °F 26.1 °F 32.4 °F 97% 30.15 in 1.8 mi NE 8.1 mph - 0.19 in Snow Light Snow
4:55 AM 33.3 °F 30.2 °F 32.7 °F 98% 30.20 in 3.0 mi NE 3.5 mph - 0.25 in Snow Light Snow
5:15 AM 33.6 °F 27.5 °F 32.9 °F 97% 30.15 in 4.0 mi NE 6.9 mph - 0.01 in Snow Light Snow
5:35 AM 33.8 °F 25.3 °F 33.1 °F 97% 30.10 in 5.0 mi NE 11.5 mph - 0.02 in   Overcast
5:55 AM 33.8 °F 26.4 °F 33.3 °F 98% 30.15 in 5.0 mi NE 9.2 mph - 0.04 in   Overcast
6:15 AM 34.2 °F 27.5 °F 33.4 °F 97% 30.21 in 10.0 mi NE 8.1 mph - N/A   Overcast
6:35 AM 34.3 °F 28.4 °F 33.4 °F 97% 30.21 in 5.0 mi NE 6.9 mph - N/A   Overcast
6:55 AM 34.3 °F 28.4 °F 33.4 °F 97% 30.22 in 7.0 mi NE 6.9 mph - N/A   Overcast
7:15 AM 34.3 °F 27.0 °F 33.4 °F 97% 30.21 in 4.0 mi NE 9.2 mph - 0.02 in Snow Light Snow
7:35 AM 34.2 °F 27.5 °F 33.3 °F 97% 30.19 in 7.0 mi NE 8.1 mph - 0.03 in Rain Light Rain
8:00 AM 34.3 °F 27.7 °F 33.4 °F 97% 30.21 in 5.0 mi NE 8.1 mph - N/A   Overcast
8:15 AM 34.5 °F 29.4 °F 33.6 °F 97% 30.20 in 10.0 mi NE 5.8 mph - N/A Rain Light Rain
8:35 AM 34.9 °F 29.0 °F 33.8 °F 96% 30.20 in 7.0 mi NNE 6.9 mph - N/A   Overcast
8:55 AM 34.9 °F 30.8 °F 33.8 °F 96% 30.19 in 10.0 mi NNE 4.6 mph - N/A   Overcast
9:15 AM 35.1 °F 30.1 °F 34.0 °F 96% 30.18 in 5.0 mi NE 5.8 mph - 0.01 in Rain Rain
9:35 AM 35.6 °F - 34.2 °F 94% 30.20 in 10.0 mi Calm Calm - 0.01 in Rain Light Rain
9:55 AM 35.6 °F 32.8 °F 34.2 °F 94% 30.21 in 3.0 mi North 3.5 mph - 0.03 in Rain Rain
10:15 AM 35.6 °F 32.8 °F 34.3 °F 95% 30.23 in 2.5 mi NW 3.5 mph - 0.03 in Rain Rain
10:35 AM 35.6 °F 30.7 °F 34.5 °F 96% 30.22 in 2.5 mi North 5.8 mph - 0.07 in Rain Rain
10:55 AM 35.6 °F 29.9 °F 34.7 °F 97% 30.21 in 2.0 mi North 6.9 mph - 0.14 in   Overcast
11:15 AM 35.4 °F 29.0 °F 34.7 °F 97% 30.22 in 1.8 mi NNW 8.1 mph - 0.06 in   Overcast
11:35 AM 35.2 °F 29.5 °F 34.9 °F 99% 30.21 in 2.5 mi NNW 6.9 mph - 0.11 in   Overcast
11:55 AM 35.6 °F 29.9 °F 34.9 °F 97% 30.22 in 5.0 mi NNW 6.9 mph - 0.12 in Rain Rain
12:15 PM 35.6 °F 32.8 °F 34.9 °F 97% 30.22 in 7.0 mi NNW 3.5 mph - 0.01 in Rain Light Rain
12:40 PM 35.8 °F 31.9 °F 34.9 °F 97% 30.18 in 3.0 mi NNE 4.6 mph - 0.03 in Rain Light Rain
12:55 PM 36.1 °F 31.4 °F 35.2 °F 97% 30.17 in 4.0 mi NNE 5.8 mph - 0.04 in Rain Light Rain
1:15 PM 36.3 °F 30.8 °F 35.4 °F 97% 30.17 in 10.0 mi North 6.9 mph - N/A   Drizzle
1:35 PM 36.7 °F 30.5 °F 35.8 °F 97% 30.16 in 5.0 mi North 8.1 mph - 0.01 in Rain Rain
1:55 PM 36.9 °F 30.1 °F 36.0 °F 97% 30.15 in 5.0 mi North 9.2 mph - 0.02 in Rain Light Rain
2:15 PM 37.2 °F 30.0 °F 36.1 °F 96% 30.14 in 10.0 mi North 10.4 mph - N/A Rain Light Rain
2:35 PM 37.9 °F 32.7 °F 36.5 °F 95% 30.12 in 4.0 mi NNE 6.9 mph - 0.02 in Rain Light Rain
2:55 PM 38.5 °F 32.1 °F 37.2 °F 95% 30.11 in 5.0 mi North 9.2 mph - 0.02 in   Overcast
3:15 PM 38.8 °F 34.6 °F 37.4 °F 95% 30.10 in 10.0 mi NNE 5.8 mph - N/A Rain Light Rain
3:35 PM 39.4 °F 34.5 °F 37.8 °F 94% 30.09 in 10.0 mi NNE 6.9 mph - N/A   Light Drizzle
3:55 PM 39.6 °F 36.3 °F 37.9 °F 94% 30.08 in 10.0 mi NE 4.6 mph - N/A   Overcast
4:15 PM 39.9 °F 36.7 °F 38.3 °F 94% 30.09 in 10.0 mi NE 4.6 mph - N/A   Overcast
4:35 PM 40.1 °F 38.0 °F 38.3 °F 93% 30.08 in 10.0 mi NE 3.5 mph - N/A   Overcast
4:55 PM 40.1 °F - 38.3 °F 93% 30.08 in 10.0 mi Calm Calm - N/A Rain Rain
5:15 PM 40.3 °F 38.2 °F 38.5 °F 93% 30.09 in 10.0 mi NE 3.5 mph - N/A   Light Drizzle
5:35 PM 40.3 °F 38.2 °F 38.7 °F 94% 30.08 in 10.0 mi ENE 3.5 mph - N/A   Overcast
5:55 PM 40.3 °F - 38.7 °F 94% 30.08 in 10.0 mi Calm Calm - N/A   Overcast
6:15 PM 40.5 °F - 38.8 °F 94% 30.08 in 10.0 mi Calm Calm - N/A   Overcast
6:35 PM 40.5 °F 38.4 °F 39.0 °F 95% 30.08 in 10.0 mi NE 3.5 mph - N/A   Overcast
6:55 PM 40.5 °F - 39.0 °F 95% 30.08 in 10.0 mi Calm Calm - N/A   Overcast
7:15 PM 40.5 °F - 39.0 °F 95% 30.08 in 10.0 mi Calm Calm - N/A   Light Drizzle
7:35 PM 40.5 °F 38.4 °F 39.2 °F 95% 30.08 in 10.0 mi NNE 3.5 mph - N/A   Overcast
7:55 PM 40.5 °F - 39.2 °F 95% 30.08 in 10.0 mi Calm Calm - N/A   Overcast
8:15 PM 40.5 °F 38.4 °F 39.2 °F 95% 30.08 in 10.0 mi NE 3.5 mph - N/A   Overcast
8:35 PM 40.6 °F - 39.4 °F 95% 30.08 in 10.0 mi Calm Calm - N/A   Overcast
8:55 PM 40.8 °F 37.8 °F 39.4 °F 95% 30.08 in 10.0 mi NE 4.6 mph - N/A   Overcast
9:15 PM 41.0 °F - 39.2 °F 93% 30.08 in 10.0 mi Calm Calm - N/A   Overcast
9:35 PM 41.0 °F 39.0 °F 39.2 °F 93% 30.07 in 10.0 mi NNE 3.5 mph - N/A   Overcast
9:55 PM 41.0 °F 38.0 °F 39.0 °F 93% 30.07 in 10.0 mi NNE 4.6 mph - N/A   Overcast
10:15 PM 41.0 °F 39.0 °F 39.2 °F 93% 30.08 in 10.0 mi North 3.5 mph - N/A   Overcast
10:35 PM 41.0 °F 39.0 °F 39.2 °F 93% 30.07 in 10.0 mi North 3.5 mph - N/A   Overcast
10:55 PM 41.0 °F - 39.2 °F 93% 30.07 in 10.0 mi Calm Calm - N/A   Overcast
11:15 PM 41.0 °F 39.0 °F 39.2 °F 93% 30.07 in 10.0 mi NNE 3.5 mph - N/A   Overcast
11:35 PM 41.0 °F - 39.2 °F 93% 30.07 in 10.0 mi Calm Calm - N/A   Overcast
11:55 PM 41.2 °F - 39.4 °F 93% 30.07 in 7.0 mi Calm Calm - N/A   Overcast